SWR458 LSZH-LSGG

Flight info

Callsign SWR458
Flight time 0h 27m
Altitude 22000
Route VEBIT T50 ROTOS Z669 ULMES
Aircraft A359/H-SDE2E3GHIJ3J4J5LM1ORWXY/LB1D1

Departure

Time 2026-02-17 07:40
Airport Zürich Airport (LSZH)

Arrival

Time 2026-02-17 08:08
Airport Geneva International Airport (LSGG)
Time Latitude Longitude Altitude Speed Heading
2026-02-17 07:12 47.46035 8.55622 1410 ft 0 kts
2026-02-17 07:31 47.46022 8.55620 1403 ft 2 kts
2026-02-17 07:32 47.46006 8.55618 1405 ft 2 kts
2026-02-17 07:32 47.45989 8.55615 1405 ft 2 kts
2026-02-17 07:32 47.45974 8.55609 1410 ft 2 kts 37°
2026-02-17 07:32 47.45964 8.55591 1411 ft 2 kts 70°
2026-02-17 07:33 47.45961 8.55568 1407 ft 0 kts 97°
2026-02-17 07:35 47.45961 8.55571 1407 ft 1 kts 97°
2026-02-17 07:36 47.45957 8.55613 1410 ft 7 kts 97°
2026-02-17 07:36 47.45953 8.55675 1405 ft 11 kts 96°
2026-02-17 07:36 47.45943 8.55807 1406 ft 9 kts 96°
2026-02-17 07:36 47.45937 8.55900 1413 ft 9 kts 96°
2026-02-17 07:37 47.45932 8.55962 1414 ft 9 kts 96°
2026-02-17 07:37 47.45926 8.56055 1411 ft 9 kts 96°
2026-02-17 07:37 47.45919 8.56157 1416 ft 11 kts 96°
2026-02-17 07:37 47.45910 8.56275 1410 ft 13 kts 96°
2026-02-17 07:38 47.45891 8.56405 1417 ft 14 kts 118°
2026-02-17 07:38 47.45836 8.56499 1415 ft 12 kts 136°
2026-02-17 07:38 47.45796 8.56618 1410 ft 15 kts 102°
2026-02-17 07:39 47.45774 8.56912 1409 ft 12 kts 96°
2026-02-17 07:39 47.45731 8.57025 1408 ft 14 kts 150°
2026-02-17 07:39 47.45679 8.57030 1408 ft 3 kts 192°
2026-02-17 07:39 47.45668 8.57012 1413 ft 3 kts 237°
2026-02-17 07:40 47.45666 8.56983 1412 ft 3 kts 268°
2026-02-17 07:40 47.45675 8.56804 1411 ft 51 kts 275°
2026-02-17 07:40 47.45745 8.55840 1411 ft 134 kts 277°
2026-02-17 07:40 47.45881 8.54282 2021 ft 154 kts 276°
2026-02-17 07:41 47.46027 8.52696 3060 ft 165 kts 277°
2026-02-17 07:41 47.46162 8.50934 3506 ft 182 kts 276°
2026-02-17 07:41 47.46161 8.48970 3913 ft 204 kts 258°
2026-02-17 07:41 47.45447 8.47050 4335 ft 228 kts 239°
2026-02-17 07:42 47.44449 8.45142 4972 ft 239 kts 237°
2026-02-17 07:42 47.43403 8.43179 5665 ft 247 kts 238°
2026-02-17 07:42 47.42334 8.41140 6412 ft 253 kts 238°
2026-02-17 07:43 47.40175 8.36948 7948 ft 259 kts 239°
2026-02-17 07:43 47.39109 8.34783 8701 ft 262 kts 243°
2026-02-17 07:43 47.38193 8.32451 9516 ft 264 kts 247°
2026-02-17 07:43 47.37332 8.30041 10224 ft 269 kts 248°
2026-02-17 07:44 47.36443 8.27511 10562 ft 287 kts 248°
2026-02-17 07:44 47.35495 8.24818 10914 ft 304 kts 248°
2026-02-17 07:44 47.34520 8.22056 11486 ft 311 kts 248°
2026-02-17 07:44 47.33536 8.19297 12168 ft 315 kts 248°
2026-02-17 07:45 47.32506 8.16414 12882 ft 319 kts 248°
2026-02-17 07:45 47.31464 8.13495 13597 ft 323 kts 248°
2026-02-17 07:45 47.30415 8.10547 14230 ft 327 kts 248°
2026-02-17 07:45 47.29350 8.07558 14865 ft 330 kts 248°
2026-02-17 07:46 47.28276 8.04546 15510 ft 334 kts 248°
2026-02-17 07:46 47.27200 8.01508 16193 ft 336 kts 249°
2026-02-17 07:46 47.26199 7.98385 16837 ft 338 kts 252°
2026-02-17 07:47 47.24371 7.91946 18124 ft 343 kts 255°
2026-02-17 07:47 47.23493 7.88718 18680 ft 346 kts 255°
2026-02-17 07:47 47.22591 7.85406 19242 ft 349 kts 255°
2026-02-17 07:47 47.21674 7.82071 19790 ft 352 kts 255°
2026-02-17 07:48 47.20744 7.78727 20344 ft 355 kts 256°
2026-02-17 07:48 47.19796 7.75359 20874 ft 359 kts 255°
2026-02-17 07:48 47.18584 7.72086 21390 ft 371 kts 246°
2026-02-17 07:48 47.17124 7.68967 21795 ft 376 kts 243°
2026-02-17 07:49 47.15554 7.65900 21895 ft 379 kts 241°
2026-02-17 07:49 47.13884 7.62781 21893 ft 394 kts 240°
2026-02-17 07:49 47.12155 7.59621 21886 ft 399 kts 240°
2026-02-17 07:49 47.10402 7.56449 21904 ft 401 kts 240°
2026-02-17 07:50 47.08648 7.53274 21904 ft 401 kts 240°
2026-02-17 07:50 47.06903 7.50108 21823 ft 395 kts 240°
2026-02-17 07:50 47.05206 7.47034 21732 ft 379 kts 240°
2026-02-17 07:51 47.01961 7.41106 20790 ft 369 kts 240°
2026-02-17 07:51 47.00371 7.38183 20322 ft 365 kts 240°
2026-02-17 07:51 46.98794 7.35297 19878 ft 361 kts 240°
2026-02-17 07:51 46.97235 7.32447 19438 ft 357 kts 240°
2026-02-17 07:52 46.95688 7.29622 18993 ft 354 kts 239°
2026-02-17 07:52 46.94172 7.26849 18541 ft 351 kts 239°
2026-02-17 07:52 46.92653 7.24075 18100 ft 348 kts 239°
2026-02-17 07:52 46.91140 7.21318 17629 ft 345 kts 239°
2026-02-17 07:53 46.89644 7.18596 17205 ft 342 kts 239°
2026-02-17 07:53 46.88159 7.15895 16788 ft 339 kts 239°
2026-02-17 07:53 46.86689 7.13223 16349 ft 336 kts 238°
2026-02-17 07:53 46.85229 7.10573 15925 ft 333 kts 238°
2026-02-17 07:54 46.82342 7.05337 15080 ft 329 kts 238°
2026-02-17 07:54 46.80914 7.02750 14657 ft 326 kts 238°
2026-02-17 07:55 46.78095 6.97656 13848 ft 322 kts 237°
2026-02-17 07:55 46.76689 6.95115 13393 ft 319 kts 237°
2026-02-17 07:55 46.75297 6.92603 12971 ft 316 kts 238°
2026-02-17 07:55 46.73922 6.90124 12558 ft 313 kts 237°
2026-02-17 07:56 46.72560 6.87668 12147 ft 310 kts 237°
2026-02-17 07:56 46.71205 6.85227 11756 ft 308 kts 237°
2026-02-17 07:56 46.69866 6.82815 11337 ft 305 kts 237°
2026-02-17 07:56 46.68538 6.80431 10961 ft 301 kts 237°
2026-02-17 07:57 46.67246 6.78113 10646 ft 294 kts 237°
2026-02-17 07:57 46.65981 6.75852 10498 ft 280 kts 237°
2026-02-17 07:57 46.64759 6.73715 10370 ft 270 kts 235°
2026-02-17 07:57 46.63525 6.71715 10240 ft 262 kts 234°
2026-02-17 07:58 46.62305 6.69764 10006 ft 259 kts 234°
2026-02-17 07:58 46.61099 6.67822 9744 ft 263 kts 234°
2026-02-17 07:58 46.59851 6.65793 9557 ft 272 kts 234°
2026-02-17 07:59 46.57313 6.61684 8829 ft 272 kts 234°
2026-02-17 07:59 46.56067 6.59675 8600 ft 260 kts 234°
2026-02-17 07:59 46.54896 6.57796 8341 ft 242 kts 234°
2026-02-17 07:59 46.53808 6.56046 8193 ft 227 kts 235°
2026-02-17 08:00 46.52757 6.54340 8049 ft 225 kts 235°
2026-02-17 08:00 46.51731 6.52670 7936 ft 224 kts 235°
2026-02-17 08:00 46.50694 6.50991 7787 ft 223 kts 235°
2026-02-17 08:00 46.49656 6.49311 7609 ft 223 kts 235°
2026-02-17 08:01 46.48622 6.47640 7371 ft 222 kts 234°
2026-02-17 08:01 46.47589 6.45973 7130 ft 221 kts 234°
2026-02-17 08:01 46.46562 6.44319 6869 ft 221 kts 234°
2026-02-17 08:01 46.45496 6.42704 6575 ft 222 kts 232°
2026-02-17 08:02 46.44400 6.41117 6222 ft 223 kts 231°
2026-02-17 08:02 46.43302 6.39538 5892 ft 221 kts 232°
2026-02-17 08:02 46.42215 6.37962 5558 ft 221 kts 232°
2026-02-17 08:03 46.40067 6.34828 4978 ft 216 kts 230°
2026-02-17 08:03 46.39011 6.33288 4863 ft 215 kts 229°
2026-02-17 08:03 46.37970 6.31761 4764 ft 209 kts 228°
2026-02-17 08:03 46.36967 6.30285 4698 ft 204 kts 229°
2026-02-17 08:04 46.35984 6.28833 4598 ft 197 kts 229°
2026-02-17 08:04 46.35037 6.27440 4363 ft 191 kts 229°
2026-02-17 08:04 46.34118 6.26083 4072 ft 187 kts 228°
2026-02-17 08:04 46.33227 6.24766 3805 ft 179 kts 227°
2026-02-17 08:05 46.32385 6.23526 3557 ft 167 kts 227°
2026-02-17 08:05 46.31603 6.22372 3335 ft 154 kts 227°
2026-02-17 08:05 46.30884 6.21310 3131 ft 142 kts 226°
2026-02-17 08:05 46.30221 6.20327 2895 ft 132 kts 226°
2026-02-17 08:06 46.29598 6.19396 2702 ft 127 kts 225°
2026-02-17 08:06 46.28982 6.18489 2549 ft 127 kts 224°
2026-02-17 08:06 46.28356 6.17579 2368 ft 128 kts 224°
2026-02-17 08:07 46.27121 6.15757 2004 ft 126 kts 223°
2026-02-17 08:07 46.26503 6.14853 1834 ft 126 kts 223°
2026-02-17 08:07 46.25885 6.13950 1676 ft 125 kts 222°
2026-02-17 08:07 46.25274 6.13043 1468 ft 126 kts 224°
2026-02-17 08:08 46.24669 6.12148 1372 ft 119 kts 223°
2026-02-17 08:08 46.24214 6.11489 1374 ft 65 kts 225°
2026-02-17 08:08 46.24036 6.11229 1381 ft 22 kts 225°
2026-02-17 08:08 46.23929 6.11089 1381 ft 16 kts 206°
2026-02-17 08:09 46.23829 6.11074 1383 ft 15 kts 168°
2026-02-17 08:09 46.23735 6.11085 1383 ft 14 kts 187°
2026-02-17 08:09 46.23650 6.10998 1379 ft 14 kts 226°
2026-02-17 08:09 46.23586 6.10903 1380 ft 10 kts 226°
2026-02-17 08:10 46.23544 6.10869 1382 ft 5 kts 171°
2026-02-17 08:10 46.23521 6.10909 1383 ft 6 kts 126°
2026-02-17 08:10 46.23494 6.10948 1381 ft 0 kts 135°